Location: Oak Glen
(34.0495°N, 116.9470°E)
Time: 17:28:01
(UTC-07:00)

Tiangong 2 - Pass Details

Date: 16 October 2017
Orbit: 388 x 391 km, 42.8° (Epoch: 23 October)

Event Time Altitude Azimuth Distance (km) Brightness Sun altitude
Exits shadow 13:59:25 17° 343° (NNW) 1,065 3.1 -17.2°
Maximum altitude 14:00:30 20° 11° (N) 962 3.2 -16.9°
Drops below altitude 10° 14:02:58 10° 62° (ENE) 1,415 4.9 -16.4°
Sets 14:05:24 0° 80° (E) 2,269 6.7 -15.9°
